Omaha, IA

12:14 AM CDT on April 22, 2018 (GMT -0500)
Eppley Airfield

Weather History for KOMA - February, 2015

Change the Weather History Date:

Wednesday, February 25, 2015

  Actual Average Record
Temperature  
Mean Temperature 27 °F 32 °F  
Max Temperature 44 °F 42 °F 74 °F (1995)
Min Temperature 10 °F 21 °F -2 °F (1965)
Degree Days  
Heating Degree Days 38 33  
Month to date heating degree days 1066 934  
Since 1 July heating degree days 4545 4699  
Cooling Degree Days 0 0  
Month to date cooling degree days 0 0  
Year to date cooling degree days 0 0  
Moisture  
Dew Point 20 °F    
Average Humidity 69    
Maximum Humidity 85    
Minimum Humidity 53    
Precipitation  
Precipitation 0.05 in 0.03 in 1.03 in (1951)
Month to date precipitation 0.45 0.73  
Year to date precipitation 1.14 1.45  
Snow  
Snow 0.20 in 0.20 in - ()
Month to date snowfall 6.4 5.6  
Since 1 July snowfall 13.6 20.7  
Snow Depth 0.00 in    
Sea Level Pressure  
Sea Level Pressure 29.92 in    
Wind  
Wind Speed 17 mph (North)    
Max Wind Speed 30 mph    
Max Gust Speed 37 mph    
Visibility 7 miles    
Events Rain , Snow    
T = Trace of Precipitation, MM = Missing Value Source: NWS Daily Summary

Daily Weather History Graph

Daily Weather History Graph

Search for Another Location

Airport or City:

Astronomy

Feb. 25, 2015 Rise Set
Actual Time 7:04 AM CST 6:09 PM CST
Civil Twilight 6:36 AM CST 6:37 PM CST
Nautical Twilight 6:04 AM CST 7:09 PM CST
Astronomical Twilight 5:32 AM CST 7:41 PM CST
Moon 11:22 AM CST (2/25) 1:03 AM CST (2/25)
Length of Visible Light 12h 00m
Length of Day
11h 05m
Waxing Crescent, 50% of the Moon is Illuminated
Feb 25
Waxing Crescent
Mar 5
Full
Mar 13
Last Quarter
Mar 20
New
Mar 27
First Quarter

Hourly Weather History & Observations

Time (CST) Temp. Windchill Dew Point Humidity Pressure Visibility Wind Dir Wind Speed Gust Speed Precip Events Conditions
12:52 AM 32.0 °F 23.0 °F 21.9 °F 66% 29.87 in 10.0 mi SE 11.5 mph - N/A   Overcast
1:52 AM 32.0 °F 24.8 °F 21.0 °F 64% 29.86 in 10.0 mi SSE 8.1 mph - N/A   Overcast
2:52 AM 30.2 °F 22.6 °F 21.2 °F 69% 29.82 in 10.0 mi SSE 8.1 mph - N/A   Overcast
3:52 AM 30.9 °F 24.3 °F 21.9 °F 69% 29.82 in 10.0 mi South 6.9 mph - N/A   Overcast
4:52 AM 33.1 °F 24.9 °F 21.9 °F 64% 29.81 in 10.0 mi SSE 10.4 mph - N/A   Overcast
5:52 AM 33.1 °F 23.9 °F 21.9 °F 64% 29.79 in 10.0 mi SSE 12.7 mph - N/A   Overcast
6:52 AM 32.0 °F 22.1 °F 21.9 °F 66% 29.78 in 10.0 mi SSE 13.8 mph - N/A   Overcast
7:52 AM 34.0 °F 24.6 °F 23.0 °F 64% 29.76 in 10.0 mi SSE 13.8 mph - N/A   Overcast
8:52 AM 36.0 °F 27.5 °F 25.0 °F 64% 29.75 in 10.0 mi South 12.7 mph - N/A   Overcast
9:52 AM 39.0 °F 32.3 °F 26.1 °F 60% 29.74 in 10.0 mi SSE 10.4 mph - N/A   Overcast
10:52 AM 42.1 °F 38.4 °F 27.0 °F 55% 29.73 in 10.0 mi South 5.8 mph - N/A   Overcast
11:52 AM 44.1 °F 40.1 °F 30.9 °F 60% 29.74 in 10.0 mi WNW 6.9 mph - 0.00 in Rain Light Rain
12:04 PM 43.0 °F 36.8 °F 30.9 °F 62% 29.72 in 10.0 mi WNW 11.5 mph - 0.00 in Rain Light Rain
12:52 PM 37.0 °F 26.7 °F 34.0 °F 89% 29.76 in 4.0 mi NNW 19.6 mph 26.5 mph 0.02 in Rain Rain
1:00 PM 34.0 °F 23.8 °F 32.0 °F 92% 29.75 in 0.8 mi NNW 16.1 mph - 0.00 in Snow Light Snow
1:09 PM 33.1 °F 21.9 °F 32.0 °F 96% 29.75 in 0.8 mi NNW 18.4 mph - 0.02 in Snow Light Snow
1:52 PM 27.0 °F 12.2 °F 24.1 °F 89% 29.83 in 0.8 mi North 24.2 mph 31.1 mph 0.03 in Snow Light Snow
1:59 PM 27.0 °F 12.5 °F 24.1 °F 89% 29.80 in 1.0 mi North 23.0 mph 33.4 mph 0.00 in Snow Light Snow
2:11 PM 26.1 °F 10.7 °F 21.9 °F 84% 29.82 in 1.5 mi North 25.3 mph 32.2 mph 0.00 in Snow Light Snow
2:24 PM 25.0 °F 9.2 °F 21.0 °F 85% 29.84 in 3.0 mi North 25.3 mph 33.4 mph 0.00 in Snow Light Snow
2:40 PM 24.1 °F 8.7 °F 19.9 °F 84% 29.86 in 2.5 mi North 23.0 mph 31.1 mph 0.00 in Snow Light Snow
2:52 PM 24.8 °F 9.6 °F 19.4 °F 80% 29.87 in 2.0 mi North 23.0 mph - N/A Snow Light Snow
3:03 PM 23.0 °F 6.3 °F 19.0 °F 85% 29.88 in 3.0 mi North 26.5 mph 33.4 mph 0.00 in Snow Light Snow
3:52 PM 23.0 °F 6.6 °F 17.1 °F 78% 29.96 in 10.0 mi North 25.3 mph 34.5 mph 0.00 in   Overcast
4:52 PM 21.9 °F 5.5 °F 16.0 °F 78% 30.01 in 10.0 mi North 24.2 mph 31.1 mph 0.00 in Snow Light Snow
5:52 PM 21.0 °F 3.3 °F 14.0 °F 74% 30.07 in 8.0 mi North 27.6 mph 33.4 mph 0.00 in Snow Light Snow
6:26 PM 19.9 °F 2.5 °F 12.9 °F 74% 30.06 in 10.0 mi North 25.3 mph 36.8 mph 0.00 in Snow Light Snow
6:52 PM 19.9 °F 3.5 °F 14.0 °F 78% 30.13 in 9.0 mi North 21.9 mph - 0.00 in Snow Light Snow
7:20 PM 19.0 °F 1.6 °F 12.9 °F 77% 30.11 in 6.0 mi North 24.2 mph 33.4 mph 0.00 in Snow Light Snow
7:52 PM 18.0 °F -0.5 °F 10.0 °F 71% 30.18 in 7.0 mi North 26.5 mph 33.4 mph 0.00 in Snow Light Snow
8:52 PM 15.1 °F -3.7 °F 7.0 °F 70% 30.22 in 10.0 mi North 24.2 mph 32.2 mph 0.00 in   Mostly Cloudy
9:52 PM 12.9 °F -6.1 °F 6.1 °F 74% 30.27 in 10.0 mi North 23.0 mph 29.9 mph 0.00 in   Overcast
10:52 PM 12.0 °F -6.5 °F 5.0 °F 73% 30.30 in 8.0 mi North 20.7 mph - 0.00 in Snow Light Snow
11:52 PM 10.0 °F -10.0 °F 3.9 °F 76% 30.33 in 9.0 mi NNW 23.0 mph - 0.00 in Snow Light Snow